Location: Brusselsch Zeekanaal
(50.8667°N, 4.3667°E)
Time: 06:12:02
(UTC+00:00)

Cosmos 2369 Rocket - Pass Details

Date: 08 November 2025
Orbit: 826 x 853 km, 71.0° (Epoch: 11 December)

Event Time Altitude Azimuth Distance (km) Brightness Sun altitude
Exits shadow 05:27:07 - 332° (NNW) 3,217 4.9 -12.7°
Reaches altitude 10° 05:29:10 10° 338° (NNW) 2,472 4.3 -12.4°
Maximum altitude 05:34:36 45° 51° (NE) 1,146 3.2 -11.6°
Drops below altitude 10° 05:40:02 10° 124° (ESE) 2,474 5.9 -10.7°
Sets 05:42:36 0° 130° (SE) 3,409 6.6 -10.3°
